Location: Lecco
(45.8566°N, 9.3977°E)
Time: 09:24:05
(UTC+02:00)

A-11 Canister half - Visible Passes

Search period start: 18 July 2019 00:00
Search period end: 28 July 2019 00:00
Orbit: 1514 x 1685 km, 47.2° (Epoch: 17 July)

Date Brightness Start Highest point End Pass type
(mag) Time Alt. Az. Time Alt. Az. Time Alt. Az.
18 Jul 10.0 03:39:22 17° S 03:45:48 34° SE 03:54:32 10° ENE visible
19 Jul 10.0 03:17:34 20° S 03:22:57 32° SE 03:31:29 10° ENE visible
20 Jul 10.1 02:55:44 22° S 03:00:05 30° SE 03:08:27 10° ENE visible
20 Jul 9.3 04:53:57 10° SW 05:04:00 71° SSE 05:14:06 10° ENE visible
21 Jul 10.0 02:33:51 24° SSE 02:37:15 28° SE 02:45:22 10° ENE visible
21 Jul 9.3 04:32:02 14° SW 04:41:04 69° SSE 04:51:09 10° ENE visible
22 Jul 10.0 02:11:55 24° SSE 02:14:24 27° SE 02:22:17 10° ENE visible
22 Jul 9.3 04:10:05 18° SW 04:18:08 67° SSE 04:28:12 10° ENE visible
23 Jul 10.1 01:49:57 24° SE 01:51:34 25° SE 01:59:10 10° E visible
23 Jul 9.2 03:48:07 22° SW 03:55:12 64° SSE 04:05:14 10° ENE visible
24 Jul 10.1 01:27:56 23° SE 01:28:45 23° SE 01:36:03 10° E visible
24 Jul 9.2 03:26:06 26° SW 03:32:17 62° SSE 03:42:15 10° ENE visible
25 Jul 10.2 01:05:52 22° SE 01:05:55 22° SE 01:12:53 10° E visible
25 Jul 9.2 03:04:02 30° SSW 03:09:22 59° SSE 03:19:17 10° ENE visible
25 Jul 9.3 05:04:05 10° W 05:14:18 86° N 05:24:32 10° E visible
26 Jul 10.3 00:43:46 20° ESE 00:43:46 20° ESE 00:49:42 10° E visible
26 Jul 9.2 02:41:54 34° SSW 02:46:28 57° SE 02:56:19 10° ENE visible
26 Jul 9.2 04:41:08 10° WSW 04:51:19 87° N 05:01:34 10° E visible
27 Jul 10.4 00:21:35 18° ESE 00:21:35 18° ESE 00:26:28 10° E visible
27 Jul 9.2 02:19:44 37° SSW 02:23:33 55° SE 02:33:20 10° ENE visible
27 Jul 9.2 04:18:11 10° WSW 04:28:20 88° NNW 04:38:36 10° E visible
